Theta_e
348 346 344 342 340 340 341 341 341 343 344 343 343 339 336 345 342 342 346 350 353 353 352 355 354 351 350 348 350 350 347 347 346 343 341 341 340 333 331 332 334 334 337
351 346 345 343 342 344 341 343 342 342 344 344 343 340 337 344 347 341 343 350 351 352 353 356 356 356 354 349 351 351 349 349 349 346 346 346 347 348 345 336 332 336 341
350 351 349 346 345 343 340 340 342 342 343 344 343 343 338 333 343 342 341 344 351 354 355 356 356 357 356 355 355 353 351 353 352 352 349 347 346 346 347 349 351 351 351
349 350 349 340 340 339 340 341 342 343 343 343 343 341 338 333 332 338 346 339 344 352 355 356 357 357 356 355 355 355 354 352 350 351 350 350 350 350 351 352 352 352 353
350 350 348 341 342 343 344 344 344 344 343 343 343 342 340 336 338 330 332 337 338 341 350 351 352 347 346 346 353 353 354 354 352 350 349 348 347 348 350 351 352 353 353
351 350 349 343 343 344 345 346 346 346 344 344 343 342 342 340 342 330 330 335 331 332 335 337 336 337 336 337 339 340 342 347 348 353 350 349 351 351 352 352 352 355 358
352 350 349 345 344 344 345 345 346 346 344 343 343 343 341 339 335 331 329 331 333 333 329 329 332 344 342 333 331 332 335 336 339 339 339 339 338 346 354 355 357 357 355
353 351 347 346 345 345 346 346 345 346 345 344 342 341 342 340 335 332 332 335 336 333 331 330 328 327 328 329 329 331 331 330 332 333 333 334 338 351 356 356 357 355 354
352 348 346 345 345 347 346 346 345 345 345 345 344 342 340 337 335 333 336 338 337 333 332 330 329 329 328 328 329 329 329 330 333 334 336 342 351 353 356 355 355 355 355
351 345 344 345 344 345 345 345 345 345 344 343 341 339 337 335 335 334 335 338 339 336 334 331 331 331 330 331 332 333 332 332 336 346 356 358 358 358 355 354 355 355 357
355 354 352 349 346 345 345 344 344 344 345 343 348 341 337 335 334 333 333 336 339 347 347 348 346 337 333 336 338 341 342 346 351 354 358 360 361 358 356 356 356 358 355
354 354 354 348 348 352 346 346 346 346 345 348 345 349 351 339 339 341 341 342 343 344 350 354 355 355 349 350 353 353 354 355 356 356 357 359 360 358 357 357 356 356 353
355 355 355 354 352 352 347 348 348 347 355 354 357 357 357 357 351 346 346 347 348 349 351 358 359 360 355 354 355 356 356 358 358 358 358 357 358 359 357 357 355 353 352
356 357 357 356 354 352 355 355 357 357 357 356 357 357 358 358 359 360 352 350 350 352 352 353 354 355 356 357 357 357 358 359 358 357 357 357 357 357 361 359 354 353 341
355 356 356 356 353 357 357 357 357 357 357 358 357 358 359 360 361 361 362 363 354 351 354 355 355 356 356 357 358 359 359 360 359 358 357 357 357 361 359 355 353 347 340
356 354 354 354 355 355 356 356 355 357 356 356 358 359 360 361 361 360 355 355 355 352 351 355 357 354 356 359 360 360 360 360 359 358 358 356 357 360 357 353 351 338 341
354 357 358 357 356 355 357 359 359 358 354 356 354 355 355 362 359 359 355 356 355 355 355 357 353 353 357 359 359 359 359 357 357 358 358 357 359 358 354 349 342 340 341
338 345 351 353 353 353 348 352 355 351 352 357 354 354 355 355 355 355 355 357 356 356 354 354 355 356 358 359 359 357 357 358 357 359 359 358 357 355 355 346 340 340 339
326 332 335 341 347 344 339 337 337 350 342 351 356 350 346 346 347 348 348 348 358 361 360 358 359 360 359 360 359 358 358 359 361 361 361 359 358 353 346 340 336 337 337
318 316 318 327 333 339 339 342 342 346 350 351 349 349 348 338 341 343 346 351 354 358 359 359 359 359 355 356 356 354 354 357 358 360 359 355 353 347 343 339 338 337 334
319 321 317 323 327 329 335 339 342 343 343 345 347 348 346 341 352 353 355 353 355 358 359 362 361 362 359 355 355 352 352 354 357 359 355 348 348 344 341 340 339 335 336
319 320 321 324 325 327 329 332 334 336 339 340 339 340 320 319 322 338 352 354 357 357 359 360 362 360 358 355 353 354 355 354 354 354 349 347 343 341 339 338 337 337 336
317 321 322 323 324 325 326 329 330 331 333 337 339 339 340 333 328 329 349 352 355 358 357 357 356 354 353 354 354 355 354 353 350 346 344 342 340 339 338 338 337 335 334
320 319 319 324 325 326 327 329 332 332 333 334 339 339 339 342 342 338 347 356 356 355 352 353 350 347 348 351 349 348 345 343 342 342 341 338 336 337 336 336 333 334 335
318 321 323 324 324 329 331 330 331 334 337 338 339 339 338 335 337 341 348 352 352 352 351 349 347 343 346 344 341 341 341 340 338 337 336 332 334 334 334 333 333 335 334
316 318 320 322 324 326 329 330 329 333 333 332 336 335 336 337 337 343 345 344 343 346 346 345 346 344 343 341 340 339 337 335 333 332 335 335 337 335 335 333 334 334 334
Wind_Speed
45 46 44 42 40 39 36 34 31 27 25 22 19 16 16 17 17 18 18 14 13 12 12 12 11 10 10 11 11 11 12 13 16 15 14 16 22 25 25 24 26 28 26
42 48 47 46 43 37 38 35 32 30 26 24 23 21 19 18 17 20 20 15 16 15 14 14 14 12 14 13 13 16 15 16 17 23 20 20 21 22 31 34 30 26 23
38 39 43 45 43 42 40 38 35 32 29 26 26 25 23 22 21 21 22 22 20 18 16 16 16 15 16 15 16 15 15 17 18 21 25 22 23 22 24 25 23 24 25
37 38 40 45 46 43 41 39 36 34 31 29 29 28 26 25 24 23 21 24 24 21 19 19 18 18 18 18 17 18 18 19 20 22 24 24 23 22 22 22 24 23 26
41 39 43 46 45 42 41 39 37 35 33 32 31 30 28 28 26 27 26 25 26 27 24 23 22 23 23 22 18 19 19 20 21 23 26 26 26 24 23 27 29 30 29
45 46 44 47 46 44 43 42 40 37 35 35 34 33 32 31 28 29 29 26 28 29 29 28 28 29 28 27 27 27 27 29 31 29 29 30 33 30 27 29 31 32 31
47 48 49 49 48 47 45 42 41 39 36 37 36 35 36 35 33 32 31 31 31 32 33 33 31 26 28 30 31 31 32 32 35 37 42 42 42 34 28 28 27 28 29
45 46 47 47 48 47 45 44 42 40 40 39 38 38 38 38 36 35 33 33 35 36 37 37 37 36 36 36 35 35 35 35 35 36 40 41 37 30 27 28 27 29 30
47 49 47 45 45 44 45 45 42 41 40 41 40 40 40 40 38 36 34 35 37 38 38 38 39 39 37 35 36 38 39 40 36 38 38 36 34 30 24 24 26 25 30
49 48 46 45 43 44 43 43 41 39 40 38 39 39 39 38 37 37 35 35 35 35 37 37 37 38 36 34 35 35 38 37 33 30 28 28 30 25 20 23 25 27 28
33 33 37 40 41 39 39 36 35 36 33 35 34 35 36 38 37 37 35 36 35 30 30 29 29 33 31 31 31 34 35 32 30 30 29 25 19 18 18 20 22 24 23
30 32 34 39 37 32 36 34 33 33 34 34 33 30 28 33 33 33 33 34 34 35 33 26 25 29 31 27 27 30 30 28 31 29 26 29 27 25 22 21 22 21 26
29 31 30 30 32 29 32 33 31 33 28 28 27 26 24 24 27 30 30 31 31 34 33 26 27 29 31 30 31 31 29 30 31 29 29 23 18 18 22 23 22 24 26
26 25 24 25 26 28 25 26 27 27 27 27 25 25 23 22 21 20 27 30 31 33 35 35 35 35 33 32 32 32 32 31 27 26 26 19 22 24 25 24 24 22 19
22 23 23 22 25 24 25 23 24 25 25 25 25 23 23 22 21 21 20 17 22 28 29 31 32 34 36 37 35 33 29 30 30 31 31 30 28 27 27 23 24 18 8
16 17 20 20 18 19 19 20 24 23 26 27 25 23 20 21 23 24 21 21 21 21 22 22 26 30 31 30 30 29 28 29 30 30 31 31 29 26 24 21 19 11 9
18 13 18 18 18 20 16 10 9 13 25 24 28 30 28 21 27 28 23 23 25 26 29 27 27 30 28 25 25 25 26 25 26 27 27 26 25 25 24 16 13 11 12
11 13 11 14 19 24 21 13 1 16 11 17 27 26 28 27 26 24 23 25 28 30 33 33 33 31 29 23 21 23 25 25 25 24 24 25 26 26 23 17 15 14 14
6 4 5 6 6 14 35 30 17 17 27 26 23 20 21 21 20 21 23 28 27 25 25 27 26 24 23 22 21 24 25 26 26 25 25 26 27 21 18 16 17 19 18
2 2 4 5 7 8 9 18 23 23 20 20 17 13 15 16 20 22 24 26 30 27 24 24 24 24 25 27 26 27 28 27 26 25 25 24 21 18 18 16 17 17 20
5 5 4 1 3 6 11 10 9 15 16 16 14 12 14 12 10 12 14 19 25 26 25 24 24 22 22 24 29 28 28 25 22 23 23 20 18 17 19 18 19 18 16
6 7 7 7 6 5 6 8 14 16 15 15 13 12 15 17 20 20 18 17 16 18 20 25 23 21 21 21 22 26 26 23 22 22 20 20 19 19 20 20 20 19 20
7 7 8 9 10 12 13 13 14 15 15 14 13 13 15 17 19 22 21 21 19 20 19 26 25 19 22 25 26 25 25 24 22 20 19 21 20 20 22 23 22 24 24
8 8 9 9 11 12 12 12 13 13 14 15 15 16 17 17 17 21 23 23 23 25 23 24 23 19 20 23 21 21 17 16 16 18 20 23 20 23 22 23 22 24 21
6 6 8 10 10 9 10 10 11 13 13 16 16 17 21 23 24 23 22 24 26 26 26 26 27 22 28 24 16 15 24 25 23 18 21 20 18 21 22 21 22 25 27
8 5 5 8 11 12 14 17 19 19 22 24 26 28 26 25 25 23 24 25 28 30 27 31 31 31 31 31 28 25 22 23 23 24 19 19 19 17 17 19 19 20 21
Wind_Direction
214 218 219 222 223 227 230 234 235 240 241 242 246 243 234 228 231 234 230 230 239 240 235 237 246 247 245 249 258 259 259 264 273 280 279 282 291 300 298 296 300 301 298
210 216 221 222 224 224 230 232 235 237 239 239 241 244 240 229 229 236 236 232 243 244 245 243 248 250 261 257 252 254 256 261 270 281 283 287 293 293 301 304 306 303 292
206 209 214 219 221 224 227 228 234 234 232 233 237 240 241 239 233 237 239 240 242 246 247 246 250 251 254 253 254 256 266 274 277 280 287 290 289 288 289 295 300 297 303
204 205 209 215 218 219 221 224 226 229 230 230 233 238 240 241 241 238 238 244 246 247 247 249 248 249 256 259 262 262 265 268 273 278 283 289 292 296 295 300 303 303 301
204 204 210 213 216 217 222 225 227 228 230 229 232 237 239 241 241 244 242 242 247 250 249 252 255 256 258 264 259 264 262 269 275 279 282 287 289 293 291 296 301 304 303
206 206 209 213 213 216 222 226 228 229 228 230 231 233 237 238 238 241 244 245 248 251 253 255 258 258 263 262 261 262 263 269 273 275 278 282 285 292 295 295 296 300 300
205 210 213 219 219 220 223 226 229 228 227 228 230 233 236 238 240 244 246 248 249 254 258 259 259 257 264 267 265 264 263 265 269 277 280 281 286 290 291 293 294 293 300
207 212 217 218 221 222 223 224 225 226 226 228 230 234 237 240 241 242 246 250 253 254 256 260 263 263 261 263 269 271 272 272 273 275 279 286 292 297 293 293 289 296 303
206 214 216 215 217 218 220 221 222 223 226 228 231 234 238 241 244 246 247 249 251 254 257 258 260 263 264 265 266 267 269 272 274 277 281 285 288 294 294 287 295 303 310
210 216 214 213 214 217 218 219 220 222 226 227 231 235 239 243 245 247 248 248 249 252 256 258 259 260 261 262 263 265 267 270 274 273 275 282 287 293 286 278 289 297 303
206 204 208 212 214 216 218 218 221 223 223 226 229 234 238 241 243 244 243 243 244 246 248 251 257 262 260 260 263 264 265 271 271 275 276 279 276 273 275 279 288 295 296
203 201 204 210 211 212 216 218 219 220 223 225 229 230 235 240 242 243 242 242 244 246 243 247 252 257 262 260 257 259 263 265 265 266 266 268 272 283 287 288 285 285 293
199 199 200 202 206 204 213 213 213 216 214 223 225 229 231 234 242 241 241 239 236 239 242 241 238 245 257 258 256 257 258 258 260 261 266 275 272 274 279 287 291 298 303
194 192 191 197 202 202 211 213 212 215 218 218 220 222 224 226 227 230 239 237 236 237 242 247 250 253 253 254 256 256 256 257 258 262 267 267 267 273 276 284 287 298 299
189 184 185 189 200 202 201 208 214 216 218 218 218 220 219 222 225 225 222 234 240 242 246 250 250 251 252 255 256 255 253 259 259 262 264 268 267 273 270 277 282 292 265
171 181 183 183 194 193 205 212 215 216 224 219 215 215 223 214 221 231 228 224 236 245 244 239 248 251 257 260 262 263 261 260 262 262 260 262 261 262 263 268 277 258 217
122 145 161 168 180 182 186 196 233 265 240 235 233 229 224 217 221 226 233 232 233 235 240 247 248 259 260 262 264 265 265 265 265 260 258 255 252 251 255 249 248 226 213
115 148 142 152 178 176 157 119 50 264 234 291 253 241 239 236 239 242 236 235 238 238 242 246 253 256 260 254 253 260 266 264 262 256 253 246 242 248 251 239 224 215 213
123 121 141 168 160 202 217 228 285 282 220 250 249 245 242 243 245 247 245 240 240 242 247 251 251 251 249 251 251 257 263 264 258 253 252 244 246 232 240 231 227 218 213
311 262 153 195 172 152 152 165 186 229 236 235 232 231 247 246 250 254 253 253 249 244 247 249 256 255 252 247 252 260 264 264 258 248 241 242 237 230 226 221 216 220 223
303 312 252 226 209 196 197 180 184 223 233 234 231 225 218 247 243 243 247 261 252 252 247 247 249 249 250 248 254 257 262 262 251 244 231 227 225 225 222 219 224 218 217
325 299 294 314 294 263 245 223 227 236 241 247 253 262 258 261 266 261 251 247 249 253 244 245 243 245 246 244 250 257 256 251 248 241 229 227 227 226 222 217 219 213 209
310 294 289 279 273 259 246 245 241 244 250 256 266 272 277 274 269 267 257 253 247 242 233 236 240 236 242 248 249 251 252 251 246 239 228 227 225 227 229 217 215 214 213
303 289 275 283 278 265 256 251 256 260 261 260 257 265 272 273 276 271 260 249 242 235 235 244 241 238 243 243 246 248 245 236 233 235 230 236 226 228 219 216 214 213 206
307 291 286 282 261 248 264 271 263 252 243 235 232 240 253 267 269 266 260 249 242 241 237 229 225 222 230 228 220 228 232 240 238 221 237 236 221 223 216 221 221 224 220
15 360 310 293 288 283 262 251 250 254 256 259 259 264 266 271 268 257 253 245 235 230 224 223 227 228 230 232 234 239 245 244 241 230 216 230 213 219 221 219 221 221 224